Location: Little Chesterford
(52.0500°N, 0.1833°E)
Time: 19:43:34
(UTC+00:00)

Cosmos 1992 Rocket - Pass Details

Date: 26 September 2023
Orbit: 756 x 765 km, 74.0° (Epoch: 10 December)

Event Time Altitude Azimuth Distance (km) Brightness Sun altitude
Rises 19:57:39 0° 332° (NNW) 3,233 8.1 -20.0°
Reaches altitude 10° 20:00:02 10° 330° (NNW) 2,304 7.3 -20.4°
Maximum altitude 20:05:12 64° 250° (WSW) 844 4.3 -21.1°
Enters shadow 20:08:04 26° 177° (S) 1,457 5.1 -21.5°
